Tracking 27086 objects as of 22-Mar-2023
HD Live streaming from Space Station
objects crossing your sky now

STARLINK-1705

Track STARLINK-1705 now!
10-day predictions
STARLINK-1705 is classified as:


NORAD ID: 46579
Int'l Code: 2020-070AZ
Perigee: 553.7 km
Apogee: 555.4 km
Inclination: 53.1 °
Period: 95.6 minutes
Semi major axis: 6925 km
RCS: Unknown
Launch date: October 6, 2020
Source: United States (US)
Launch site: AIR FORCE EASTERN TEST RANGE (AFETR)
Your satellite tracking list
Your tracking list is empty




NASA's NSSDC Master Catalog

Two Line Element Set (TLE):
1 46579U 20070AZ  23081.09828465  .00026529  00000-0  17965-2 0  9990
2 46579  53.0538 346.0473 0001274  89.6061 270.5074 15.06331861136377
Source of the keplerian elements: AFSPC